STARLINK-32868, 62854

Orbit data source: Space-Track

STARLINK-32868, 62854 is a payload satellite owned by SpaceX/Seattle (US) in LEO that was launched on Sat, 01 Feb 2025 UTC via an FALCON 9 launch vehicle from the Air Force Western Test Range (AFWTR). Payload-class satellites include a variety of spacecraft equipped with specific instruments for various scientific and technological missions. These include communications satellites like Starlink; space stations such as the ISS; scientific satellites like the Hubble; Earth observation satellites from companies like Planet Labs, Umbra, and HawkEye 360; GPS; miniature CubeSats for education and research; and military/defense satellites.

Loading next visibility...
Identifier
62854, 2025-022A
Orbit
LEO
Last TLE update
19 hours ago
Origin
Manufacturer
SpaceX/Seattle
Mission
Operational Commercial Communications
Bus & Motor
STARLINK V2M, Unknown motor
Mass
730 kg wet, ~700 kg dry
Launch date (UTC)
2025-02-01 (5 months ago)
Launch vehicle
FALCON 9
Launch site
Air Force Western Test Range (AFWTR)
Object type
Payload
Rocket body
Debris
Shape & HBR
Box + 2 Pan, 29 m
Radar Cross Section
33.884 m², Large (>1 m²)

Expand to show TLE details & history

TLE from 19 hours ago
0 STARLINK-32868
1 62854U 25022A   25181.58432349  .00015965  00000-0  40828-3 0  9992
2 62854  53.1573 221.1940 0001236  88.8319 271.2827 15.39619628 24105
Epoch: 2025-06-30T14:01Z
TLE epoch observation values (Epoch: 2025-06-30T14:01:25.549Z)
Latitude
-0.00006°
Longitude
91.94547°
Altitude
448.118 km
Speed
7.645 km/s
True Right ascension
14h 44m 46s
True Declination
0° 00' 00"
Sunlit
Object was in full shadow at epoch
Visualization orbit readout
Latitude
-18.69251°
Longitude
73.69216°
Altitude
452.65 km
Speed
7.641 km/s
Apparent Right ascension
11h 19m 34s
Apparent Declination
-35° 18' 06"
Sunlit
Object is in daylight
Visualization observer readout
Local Sidereal Time
20:15:11
Azimuth
262.244° W
Elevation
-53.598°
Doppler factor
1
Orbital elements
Apogee altitude
448.335 km
Perigee altitude
446.647 km
Semi-major axis
6,825.628 km
Eccentricity
0.00012
Inclination
53.1573°
RAAN
221.194°
Arg. of periapsis
88.8319°
True anomaly
Unknown
Mean anomaly
271.2827°
Eccentric anomaly
Unknown
Mean motion
3.84883 °/min
Orbital period
93.53 mins
BSTAR
0.00040828
Loading maneuver chart data...
Loading SW <> Apogee altitude chart data...
Loading historical data...
Loading historical data...
Loading historical data...
Loading historical data...
Loading historical data...
Loading historical data...
Loading historical data...

STARLINK-32868 Visibility forecast

Observer location: undefined°, undefined°

Span
Click to sort rows by Start time (UTC) header in descending order
Start Az.
Max El. time (UTC)
Max El. Az.
Max El.
End time (UTC)
End Az.
4 mins2025-07-01 10:44:02.531Z348.704° N2025-07-01 10:46:02.531Z31.856° NE18.034°2025-07-01 10:48:02.531Z68.987° E
5 mins2025-07-01 12:21:02.531Z303.865° NW2025-07-01 12:23:02.531Z264.623° W42.549°2025-07-01 12:26:02.531Z139.198° SSE
6 mins2025-07-02 05:09:02.531Z232.601° WSW2025-07-02 05:12:02.531Z262.934° W43.8°2025-07-02 05:15:02.531Z47.485° ENE
|